Погода в Береговом

Россия / Краснодарский край     44°25′11″N   38°21′35″E
темп.,
°C
ветер,
м/с
пор.,
м/с
влажн.,
%
обл.,
%
осадки,
мм/ч
давл.,
гПа
погр.,
м
28 июня, вт
вт2800:00+18всв3791100 0.4 1010303
03:00+18в249788 0.8 1011178
06:00+18св129684 0.7 101177
09:00+22ююз017988 0.8 1011687
12:00+22з227896 0.3 1012681
15:00+25ссз136589 0.4 10111095
18:00+23св486894 0.2 1011727
21:00+18ссв378990 1.5 1011206
29 июня, ср
ср2900:00+17св238792 0.4 101253
03:00+16св229587 2.1 101145
06:00+16св339383 0.0 101260
09:00+24всв265531 0.0 1012609
12:00+28вюв254347 0.0 10121566
15:00+29св363942 0.0 10111740
18:00+27св594521 0.0 10101202
21:00+23св3105653 0.0 1011300
30 июня, чт
чт3000:00+18в23795 0.0 101151
03:00+17всв229189 0.0 101248
06:00+18св22841 0.0 101244
09:00+25ссз03560 0.0 1012656
12:00+27ююз15545 0.0 10121401
15:00+27ссв255586 0.0 10111071
18:00+27св48529 0.0 10101091
21:00+23св513520 0.0 1011690
1 июля, пт
пт100:00+22св614430 0.0 1011564
03:00+17св35580 0.0 1012124
06:00+16ссв34625 0.0 101294
09:00+23ссв384188 0.0 1012480
12:00+27св69383 0.0 10121127
15:00+28св68360 0.0 10111659
18:00+26ссв610410 0.0 10121270
21:00+23св513410 0.0 1013820
2 июля, сб
сб200:00+20св514470 0.0 1013542
03:00+18св411540 0.0 1014335
06:00+16ссв410590 0.0 1014263
09:00+23ссв512390 0.0 1014839
12:00+26св710340 0.0 10141650
15:00+27св710330 0.0 10141751
18:00+25ссв510400 0.0 10141464
21:00+22ссв513470 0.0 1015662